Weather History for Ashtabula, OH

Change the Weather History Date:

Thursday, July 25, 2013

  Actual Average (KYNG) Record (KYNG)
Temperature  
Mean Temperature 60 °F 71 °F  
Max Temperature 73 °F 81 °F 97 °F (1934)
Min Temperature 48 °F 60 °F 44 °F (1953)
Degree Days  
Heating Degree Days 4 0  
Month to date heating degree days 8  
Since 1 June heating degree days 77  
Since 1 July heating degree days 8  
Cooling Degree Days 0 6  
Month to date cooling degree days 150  
Year to date cooling degree days 299  
Since 1 June cooling degree days 260  
Growing Degree Days 10 (Base 50)    
Moisture  
Dew Point 49 °F    
Average Humidity 67    
Maximum Humidity 93    
Minimum Humidity 42    
Precipitation  
Precipitation 0.00 in 0.14 in 1.11 in (1977)
Month to date precipitation 3.53  
Year to date precipitation 22.20  
Snow  
Snow 0.00 in 0.00 in - ()
Month to date snowfall 0.0  
Since 1 June snowfall 0.0  
Since 1 July snowfall 0.0  
Snow Depth -    
Sea Level Pressure  
Sea Level Pressure 30.10 in    
Wind  
Wind Speed 3 mph (East)    
Max Wind Speed 13 mph    
Max Gust Speed -    
Visibility 10 miles    
Events      
T = Trace of Precipitation, MM = Missing Value Source: NWS Daily Summary

Daily Weather History Graph

Daily Weather History Graph

Search for Another Location

Airport:

Trip Planner

Search our weather history database for the weather conditions in past years. The results will help you decide how hot, cold, wet, or windy it might be!

Date:

Astronomy

Jul. 25, 2013 Rise Set
Actual Time 6:10 AM EDT 8:47 PM EDT
Civil Twilight 5:38 AM EDT 9:19 PM EDT
Nautical Twilight 4:57 AM EDT 9:59 PM EDT
Astronomical Twilight 4:12 AM EDT 10:45 PM EDT
Moon 10:23 PM EDT (7/25) 9:41 AM EDT (7/25)
Length of Visible Light 15h 41m
Length of Day
14h 37m
Waning Gibbous, 88% of the Moon is Illuminated
Jul 25
Waning Gibbous
Jul 29
Last Quarter
Aug 6
New
Aug 14
First Quarter
Aug 20
Full

Hourly Weather History & Observations

Time (EDT) Temp. Dew Point Humidity Pressure Visibility Wind Dir Wind Speed Gust Speed Precip Events Conditions
12:53 AM 53.1 °F 50.0 °F 89% 30.06 in 10.0 mi Calm Calm - N/A   Clear
1:53 AM 52.0 °F 48.0 °F 86% 30.06 in 9.0 mi Calm Calm - N/A   Clear
2:53 AM 52.0 °F 48.0 °F 86% 30.05 in 10.0 mi Calm Calm - N/A   Clear
3:53 AM 50.0 °F 46.9 °F 89% 30.06 in 10.0 mi Calm Calm - N/A   Clear
4:53 AM 48.9 °F 46.0 °F 90% 30.08 in 8.0 mi Calm Calm - N/A   Clear
5:53 AM 50.0 °F 46.0 °F 86% 30.08 in 10.0 mi Calm Calm - N/A   Clear
6:53 AM 50.0 °F 48.0 °F 93% 30.09 in 10.0 mi Calm Calm - N/A   Clear
7:53 AM 55.9 °F 48.9 °F 77% 30.10 in 10.0 mi SE 3.5 mph - N/A   Clear
8:53 AM 62.1 °F 50.0 °F 65% 30.11 in 10.0 mi ESE 8.1 mph - N/A   Clear
9:53 AM 64.9 °F 48.0 °F 54% 30.12 in 10.0 mi ESE 12.7 mph - N/A   Clear
10:53 AM 66.9 °F 46.9 °F 49% 30.13 in 10.0 mi ESE 10.4 mph - N/A   Clear
11:53 AM 69.1 °F 46.9 °F 45% 30.12 in 10.0 mi Variable 5.8 mph - N/A   Clear
12:53 PM 71.1 °F 46.9 °F 42% 30.11 in 10.0 mi Variable 5.8 mph - N/A   Clear
1:53 PM 72.0 °F 48.0 °F 43% 30.10 in 10.0 mi Variable 3.5 mph - N/A   Clear
2:53 PM 73.0 °F 50.0 °F 44% 30.10 in 10.0 mi NE 8.1 mph - N/A   Clear
3:53 PM 73.0 °F 48.9 °F 42% 30.11 in 10.0 mi Variable 4.6 mph - N/A   Clear
4:53 PM 72.0 °F 48.0 °F 43% 30.12 in 10.0 mi North 8.1 mph - N/A   Clear
5:53 PM 71.1 °F 48.9 °F 45% 30.10 in 10.0 mi Variable 6.9 mph - N/A   Clear
6:53 PM 71.1 °F 48.0 °F 44% 30.10 in 10.0 mi ENE 6.9 mph - N/A   Clear
7:53 PM 69.1 °F 50.0 °F 51% 30.09 in 10.0 mi ENE 3.5 mph - N/A   Clear
8:53 PM 61.0 °F 54.0 °F 78% 30.10 in 10.0 mi Calm Calm - N/A   Clear
9:53 PM 59.0 °F 54.0 °F 83% 30.12 in 10.0 mi Calm Calm - N/A   Clear
10:53 PM 57.0 °F 54.0 °F 89% 30.12 in 10.0 mi Calm Calm - N/A   Clear
11:53 PM 55.9 °F 52.0 °F 87% 30.12 in 10.0 mi Calm Calm - N/A   Clear